STARLINK-34704

Last updated on Mon Oct 20 2025 00:02:06 GMT+0000 (Coordinated Universal Time)

1 65746U 25216N 25292.23523541 .00142233 00000+0 25149-2 0 9996 2 65746 53.1588 272.2465 0001276 106.8136 253.3013 15.49356313 4842
UTC large
Height (km)
Speed (km/s)
/
Latitude / Longitude
Inclination (degrees)
Orbital Period (minutes)
Azimuth
Elevation
Range (km)
Doppler Factor

Next 0 passes for location: London (51.5072 / 0.1276)

Sorry there are no passes over London.